Regional Weather Roundup
Issued by NWS

Home | Current Version | Previous Version | Text Only | Print | Product List | Glossary Off
Versions: 1 2 3 4 5 6 7 8 9 10 11 12 13 14 15 16 17 18 19 20 21 22 23 24 25 26 27 28 29 30 31 32 33 34 35 36 37 38 39 40 41 42 43 44 45 46 47 48 49 50

000
ASUS43 KMKX 261821
RWRWI

WISCONSIN REGIONAL WEATHER ROUNDUP
NATIONAL WEATHER SERVICE MILWAUKEE/SULLIVAN WI
100 PM CDT MON SEP 26 2016

NOTE: "FAIR" INDICATES FEW OR NO CLOUDS BELOW 12,000 FEET WITH NO
SIGNIFICANT WEATHER AND/OR OBSTRUCTIONS TO VISIBILITY.

WIZ001-002-006>008-014>016-023>028-261900-
NORTHWEST WISCONSIN

CITY           SKY/WX    TMP DP  RH WIND       PRES   REMARKS
SUPERIOR ARPT  CLOUDY    54  46  75 W15G25    29.75R
6HR MIN TEMP:  50; 6HR MAX TEMP:  56;

ASHLAND        LGT RAIN  52  48  86 W16G23    29.71R
6HR MIN TEMP:  50; 6HR MAX TEMP:  52; 6HR PCP:  0.16;

HAYWARD        LGT RAIN  54  41  61 W14G23    29.77S
6HR MIN TEMP:  49; 6HR MAX TEMP:  55; 6HR PCP: TRACE;

SIREN          CLOUDY    57  40  52 NW23G30   29.83S
6HR MIN TEMP:  49; 6HR MAX TEMP:  57;

CUMBERLAND     CLOUDY    55  37  50 W23G32    29.83S
RICE LAKE      CLOUDY    58  38  47 W17G26    29.85S
6HR MIN TEMP:  51; 6HR MAX TEMP:  59;

CHETEK         NOT AVBL
LADYSMITH      MOSUNNY   58  41  53 W21G29    29.81S
6HR MIN TEMP:  51; 6HR MAX TEMP:  58;

EAU CLAIRE     MOSUNNY   61  38  42 W29G41    29.85R
6HR MIN TEMP:  50; 6HR MAX TEMP:  62;

MENOMONIE      MOSUNNY   60  38  43 W24G35    29.87R
6HR MIN TEMP:  51; 6HR MAX TEMP:  62;

NEW RICHMOND   PTSUNNY   58  38  46 W20G31    29.88F
6HR MIN TEMP:  49; 6HR MAX TEMP:  60;

OSCEOLA        PTSUNNY   58  39  48 W15G31    29.91S
6HR MIN TEMP:  50; 6HR MAX TEMP:  60;

$$

WIZ003>005-009-010-017-018-261900-
NORTH CENTRAL WISCONSIN

CITY           SKY/WX    TMP DP  RH WIND       PRES   REMARKS
MANITOWISH WTR NOT AVBL
ARBOR VITAE    CLOUDY    52  44  74 W15G23    29.72R
6HR MIN TEMP:  49; 6HR MAX TEMP:  52;

WOODRUFF       CLOUDY    52  44  74 W15G23    29.72R
6HR MIN TEMP:  49; 6HR MAX TEMP:  52;

RHINELANDER    CLOUDY    54  42  64 W25G43    29.73S
6HR MIN TEMP:  48; 6HR MAX TEMP:  55; 6HR PCP: TRACE;

EAGLE RIVER    DRIZZLE   49  46  88 W10G18    29.70S
6HR MIN TEMP:  48; 6HR MAX TEMP:  49;

LAND O LAKES   LGT RAIN  49  46  92 W12G20    29.70R
6HR MIN TEMP:  48; 6HR MAX TEMP:  49;

PHILLIPS       CLOUDY    53  40  62 W14G25    29.75S
6HR MIN TEMP:  47; 6HR MAX TEMP:  53; 6HR PCP:  0.01;

TOMAHAWK       PTSUNNY   55  39  55 W16G29    29.75F
6HR MIN TEMP:  47; 6HR MAX TEMP:  55;

MEDFORD        CLOUDY    56  39  53 W21G35    29.79S
6HR MIN TEMP:  49; 6HR MAX TEMP:  57;

MERRILL        CLOUDY    55  41  58 NW14G24   29.77S
6HR MIN TEMP:  50; 6HR MAX TEMP:  57;

$$

WIZ029-030-035-036-043>047-261900-
CENTRAL WISCONSIN

CITY           SKY/WX    TMP DP  RH WIND       PRES   REMARKS
WAUSAU         CLOUDY    58  39  49 W20G32    29.77S
6HR MIN TEMP:  51; 6HR MAX TEMP:  59;

MOSINEE        CLOUDY    59  37  44 W29G36    29.80F
MARSHFIELD     CLOUDY    59  37  44 W21G32    29.81F
6HR MIN TEMP:  50; 6HR MAX TEMP:  62;

STEVENS POINT  CLOUDY    58  37  45 W20G28    29.82S
WAUPACA        MOSUNNY   64  38  38 W22G33    29.82R
6HR MIN TEMP:  55; 6HR MAX TEMP:  64;

WAUTOMA        CLOUDY    62  38  40 W25G33    29.84F
6HR MIN TEMP:  51; 6HR MAX TEMP:  63;

WISC RAPIDS    PTSUNNY   62  38  40 NW16G30   29.84F
6HR MIN TEMP:  50; 6HR MAX TEMP:  63;

CAMP DOUGLAS   MOSUNNY   63  41  45 W22G37    29.87F
$$

WIZ011>013-019>022-031-037>040-048>050-261900-
NORTHEAST WISCONSIN

CITY           SKY/WX    TMP DP  RH WIND       PRES   REMARKS
ANTIGO         LGT RAIN  51  42  71 NW16G24   29.76R
6HR MIN TEMP:  48; 6HR MAX TEMP:  55;

SHAWANO        CLOUDY    60  40  48 W18G30    29.77S
6HR MIN TEMP:  53; 6HR MAX TEMP:  64;

OCONTO         NOT AVBL
STURGEON BAY   CLOUDY    60  46  59 W15G23    29.75F
6HR MIN TEMP:  53; 6HR MAX TEMP:  60;

GREEN BAY      MOSUNNY   63  42  46 W20G32    29.78S
6HR MIN TEMP:  52; 6HR MAX TEMP:  63; 6HR PCP: TRACE;

MANITOWOC      PTSUNNY   63  38  39 W21G30    29.80S
6HR MIN TEMP:  55; 6HR MAX TEMP:  64;

APPLETON       PTSUNNY   61  36  39 W25G35    29.80S
CLINTONVILLE   NOT AVBL
OSHKOSH        PTSUNNY   62  38  40 W16G28    29.82S
6HR MIN TEMP:  53; 6HR MAX TEMP:  63; 6HR PCP: TRACE;

$$

WIZ032>034-041-042-053>061-261900-
SOUTHWEST WISCONSIN

CITY           SKY/WX    TMP DP  RH WIND       PRES   REMARKS
LA CROSSE      MOSUNNY   68  38  33 W20G40    29.90F
6HR MIN TEMP:  54; 6HR MAX TEMP:  68; 6HR PCP: TRACE;

SPARTA         MOSUNNY   64  37  36 W25G31    29.89F
6HR MIN TEMP:  49; 6HR MAX TEMP:  64;

VIROQUA        MOSUNNY   64  33  31 W21G29    29.93F
6HR MIN TEMP:  47; 6HR MAX TEMP:  64;

BOSCOBEL       SUNNY     67  37  33 W16G32    29.96F
6HR MIN TEMP:  51; 6HR MAX TEMP:  67;

PRAIRIE DU CHI SUNNY     67  32  27 W16G26    29.97F
6HR MIN TEMP:  51; 6HR MAX TEMP:  67;

PLATTEVILLE    SUNNY     65  38  37 W24G31    29.99F
6HR MIN TEMP:  49; 6HR MAX TEMP:  65;

$$

WIZ056-057-062-063-064-067-068-261900-
SOUTH CENTRAL WISCONSIN

CITY           SKY/WX    TMP DP  RH WIND       PRES   REMARKS
REEDSBURG      NOT AVBL
BARABOO/DELLS  PTSUNNY   64  34  33 W20G29    29.89F
6HR MIN TEMP:  50; 6HR MAX TEMP:  64;

LONE ROCK      MOSUNNY   65  37  35 W25G37    29.94F
6HR MIN TEMP:  50; 6HR MAX TEMP:  65;

MINERAL POINT  SUNNY     64  34  32 W20G28    29.96F
MADISON        PTSUNNY   62  39  42 VRB7G22   29.91F
6HR MIN TEMP:  53; 6HR MAX TEMP:  63;

MIDDLETON      NOT AVBL
WATERTOWN      PTSUNNY   63  41  44 W22G29    29.90S
6HR MIN TEMP:  52; 6HR MAX TEMP:  64;

MONROE         SUNNY     63  34  34 W20G32    29.96F
JANESVILLE     MOSUNNY   66  37  34 W23G32    29.94F
$$

WIZ051-052-058>065-066-070>072-261900-
SOUTHEAST WISCONSIN

CITY           SKY/WX    TMP DP  RH WIND       PRES   REMARKS
MILWAUKEE      MOSUNNY   66  39  37 W21G31    29.90F
6HR MIN TEMP:  57; 6HR MAX TEMP:  66;

WAUKESHA       PTSUNNY   63  39  42 W16G31    29.91S
MILWAUKEE/TIMM PTSUNNY   64  36  34 W16G31    29.89F
RACINE         MOSUNNY   65  38  36 W20G30    29.92F
6HR MIN TEMP:  56; 6HR MAX TEMP:  66;

BURLINGTON     SUNNY     64  38  37 W17G26    29.92F
6HR MIN TEMP:  52; 6HR MAX TEMP:  64;

KENOSHA        SUNNY     66  40  38 W23G35    29.92F
6HR MIN TEMP:  55; 6HR MAX TEMP:  66;

FOND DU LAC    PTSUNNY   63  39  41 W22G33    29.85S
6HR MIN TEMP:  53; 6HR MAX TEMP:  63;

SHEBOYGAN      PTSUNNY   62  37  39 W21G31    29.84S
6HR MIN TEMP:  54; 6HR MAX TEMP:  64;

WEST BEND      PTSUNNY   63  36  36 W24G35    29.87S
JUNEAU         CLOUDY    61  39  43 W16G38    29.89F
6HR MIN TEMP:  51; 6HR MAX TEMP:  62;

$$

LSZ147-162-261900-
LAKE SUPERIOR

STATION/POSITION TIME  TEMP    WIND        PRES    WAVE
                       AIR SEA DIR/SP/G            HT/PER
                 (UTC) (F)     (DEG/KT/KT) (MB)    (FT/S)
W MID LAKE BUOY  1750   53 52  250/ 27/ 35 1000.1R   8/ 7
DEVILS ISLAND    1800   53     260/ 28/ 35 1003.7R
SAXON HARBOR     1700   52     230/  7/ 12 1005.4
$$

LMZ867-665-643>646-261900-
LAKE MICHIGAN

STATION/POSITION TIME  TEMP    WIND        PRES    WAVE
                       AIR SEA DIR/SP/G            HT/PER
                 (UTC) (F)     (DEG/KT/KT) (MB)    (FT/S)
CHAMBERS ISLAND  1700   57     220/ 12/ 24 1006.4S
N MID LAKE BUOY  1750   58 67  240/ 25/ 31 1004.6F   6/ 6
NORTHPORT PIER   1700   57     250/  6/ 19 1006.4S
KEWAUNEE LAKESHO 1700   60     270/ 13/ 23 1008.0F
SHEBOYGAN LAKESH 1800   62     260/ 17/ 23 1009.8R
PORT WASHINGTON  1700   65     270/ 15     1011.9
ATWATER BUOY     1800   62 55  260/ 19/ 25 1011.9F
MILWAUKEE LAKESH 1710   63  C1F1C2F2C3F3C4F4C5F5C6F6C7F7C8M1C9M2Ca!



USA.gov is the U.S. government's official web portal to all federal, state and local government web resources and services.